[[{"header":{"parameterUnit":"m.s-1","parameterCategory":1,"la1":30.2991,"la2":30.254,"lo1":-89.0895,"lo2":-89.0444,"dy":0.0017,"dx":0.0017,"nx":28,"ny":28,"refTime":"2025-09-14T21:00:00:Z","depth":0,"parameterNumber":2,"parameterNumberName":"U-component_of_WINDS"},"data":[0,0,0,0,0,0,0,0,0,0,0,0,0,0,0,0,0,0,0,0,0,0,0,0,0,0,0,0,0,0,0,0,0,0,0,0,0,0,0,0,0,0,0,0,0,0,0,0,0,0,0,0,0,0,0,0,0,0,1.5084,1.5085,0,1.5169,1.517,1.5171,1.5193,1.5193,1.5192,1.5192,1.5276,1.5279,1.5282,0,0,0,0,0,0,0,0,0,0,0,0,0,1.4939,1.4941,1.5084,1.5085,1.5086,1.5169,1.517,1.5171,1.5193,1.5193,1.5192,1.5191,1.5275,1.5279,1.5282,0,0,0,0,0,0,0,0,0,0,0,0,0,1.501,1.4942,1.5084,1.5107,1.511,1.5169,1.517,1.5172,1.5193,1.5193,1.5192,1.5191,1.5274,1.5278,1.5282,1.5323,0,0,1.5295,1.5297,0,0,0,0,0,0,0,0,1.5006,1.5016,1.5103,1.5106,1.5109,1.517,1.515,1.5222,1.5194,1.5162,1.5192,1.5191,1.5241,1.5248,1.5266,1.5327,1.5331,1.5295,1.5298,1.53,1.5301,0,0,0,0,0,0,0,1.5001,1.5012,1.5118,1.5104,1.5108,1.5113,1.5122,1.5164,1.5205,1.5164,1.5166,1.5176,1.5243,1.5262,1.5268,1.5332,1.5295,1.5299,1.5301,1.5303,1.543,1.5431,0,0,0,0,0,0,1.4993,1.5008,1.5115,1.512,1.5055,1.5116,1.5126,1.5151,1.5204,1.5212,1.5177,1.5177,1.5255,1.5263,1.5271,1.5321,1.5299,1.5303,1.5306,1.5429,1.543,1.5431,0,0,0,0,0,0,1.499,1.5002,1.5112,1.5065,1.5079,1.5119,1.5147,1.5153,1.5172,1.5214,1.5221,1.5188,1.5255,1.5265,1.531,1.5324,1.5305,1.5309,1.5428,1.543,1.5431,1.5423,0,0,0,0,0,0,1.4985,1.5001,1.5017,1.5065,1.5081,1.515,1.5148,1.5155,1.5179,1.518,1.5227,1.5233,1.5255,1.5304,1.5314,1.533,1.5312,1.5427,1.5429,1.543,1.5422,1.5423,1.5425,0,0,0,0,0,1.498,1.5011,1.5018,1.5031,1.5103,1.5151,1.516,1.5185,1.518,1.5197,1.5223,1.5232,1.5321,1.5308,1.532,1.5337,1.5426,1.5428,1.543,1.5421,1.5423,1.5425,0,0,0,0,0,0,1.4963,1.5018,1.5026,1.5074,1.5107,1.5154,1.5176,1.5186,1.5221,1.5221,1.5249,1.526,1.5302,1.5324,1.5308,1.5379,1.5374,1.5378,1.5363,1.5365,1.5367,1.536,1.5316,0,0,0,0,0,1.4965,1.5,1.5046,1.5084,1.51,1.5135,1.5157,1.5173,1.5209,1.5223,1.5253,1.5287,1.5322,1.5345,1.538,1.5425,1.5435,1.5443,1.5445,1.5446,1.5449,1.5474,1.5477,1.5438,1.5438,1.5438,0,0,1.4969,1.5004,1.5024,1.5081,1.5109,1.5144,1.5147,1.5183,1.5209,1.5228,1.5272,1.5295,1.5335,1.538,1.5401,1.54,1.5462,1.5449,1.5449,1.5452,1.5476,1.548,1.5483,1.5439,1.5439,1.5439,0,0,1.4994,1.5024,1.5059,1.5087,1.513,1.5153,1.5161,1.5207,1.5223,1.5268,1.5282,1.5313,1.5374,1.5402,1.5424,1.5459,1.5468,1.547,1.5478,1.5502,1.5505,1.5508,1.5519,1.5523,1.5473,1.5473,1.5473,0,1.4994,1.5048,1.5075,1.5111,1.5135,1.5155,1.5189,1.5215,1.5267,1.5283,1.528,1.5357,1.5385,1.5436,1.5445,1.5463,1.5472,1.5464,1.5502,1.5505,1.5508,1.552,1.5524,1.5473,1.5473,1.5473,1.5473,0,1.5044,1.5081,1.5104,1.5154,1.5181,1.5216,1.5247,1.5271,1.5285,1.5308,1.5353,1.5388,1.543,1.5443,1.5457,1.5496,1.5494,1.5497,1.5492,1.5512,1.5523,1.5527,1.5473,1.5473,1.5473,1.5473,0,0,1.506,1.5125,1.5133,1.5156,1.5204,1.5233,1.5269,1.5311,1.533,1.5365,1.5395,1.5446,1.5449,1.5474,1.5491,1.5512,1.5537,1.5512,1.5514,1.5515,1.5581,1.5577,1.5582,1.5543,1.5544,1.5545,1.5577,0,1.509,1.5155,1.5181,1.5233,1.5267,1.5287,1.5318,1.535,1.5373,1.5404,1.5429,1.5464,1.5466,1.5481,1.5503,1.5529,1.555,1.5527,1.557,1.5571,1.5558,1.5588,1.5585,1.5613,1.5582,1.5582,1.5583,0,1.5134,1.517,1.5226,1.527,1.5286,1.5313,1.5353,1.5383,1.5421,1.5436,1.5463,1.5479,1.5516,1.551,1.5561,1.5545,1.5564,1.558,1.5581,1.5585,1.5577,1.5591,1.5623,1.5626,1.559,1.559,1.5589,0,1.5138,1.5201,1.5242,1.5261,1.5315,1.5333,1.5356,1.5393,1.5416,1.5451,1.5467,1.5505,1.5526,1.5555,1.5581,1.5574,1.5629,1.5625,1.5642,1.5641,1.5651,1.565,1.5685,1.5666,1.5665,1.5665,1.5665,0,1.5168,1.5201,1.5245,1.527,1.5308,1.5337,1.5373,1.5397,1.5429,1.5459,1.5479,1.5506,1.5539,1.557,1.559,1.5629,1.5638,1.565,1.5655,1.5648,1.5646,1.566,1.5658,1.5667,1.5666,1.5666,1.5666,0,1.5179,1.521,1.5256,1.5303,1.5315,1.5341,1.538,1.5405,1.5429,1.5466,1.5477,1.5513,1.5551,1.558,1.5629,1.5643,1.5683,1.5689,1.567,1.5673,1.5687,1.5685,1.5731,1.5738,1.5715,1.5715,1.5715,0,1.5195,1.5222,1.5271,1.5293,1.5316,1.5351,1.5375,1.5405,1.5429,1.5473,1.5493,1.5532,1.5565,1.5624,1.5655,1.5692,1.5698,1.5712,1.5704,1.5695,1.5697,1.5695,1.5697,1.5712,1.5712,1.5712,1.5712,0,1.5221,1.5235,1.527,1.531,1.5339,1.5372,1.5405,1.5421,1.5456,1.5482,1.5522,1.5547,1.5598,1.5636,1.5676,1.5699,1.5711,1.5715,1.572,1.5713,1.5701,1.5706,1.5672,1.5713,1.5713,1.5713,1.5713,1.5713,1.5235,1.5259,1.5297,1.5335,1.5364,1.5394,1.542,1.5447,1.548,1.5524,1.5539,1.5579,1.5616,1.5672,1.5695,1.5726,1.5726,1.5734,1.5736,1.5738,1.5736,1.5697,1.5733,1.5733,1.5734,1.5734,1.5734,0,1.526,1.5287,1.5321,1.5367,1.5397,1.5407,1.5444,1.5468,1.5503,1.5537,1.5569,1.5614,1.5651,1.5685,1.5724,1.5742,1.5749,1.5751,1.5749,1.5754,1.5734,1.5725,1.5745,1.5745,1.5745,1.5745,1.5745,1.5745,1.5277,1.5318,1.5337,1.5391,1.5417,1.5457,1.5477,1.5505,1.5532,1.5581,1.5613,1.5635,1.5668,1.571,1.5744,1.5753,1.5766,1.5767,1.5777,1.5757,1.5756,1.5754,1.5746,1.577,1.577,1.5794,1.5794,1.5794]},{"header":{"parameterUnit":"m.s-1","parameterCategory":1,"la1":30.2991,"la2":30.254,"lo1":-89.0895,"lo2":-89.0444,"dy":0.0017,"dx":0.0017,"nx":28,"ny":28,"refTime":"2025-09-14T21:00:00:Z","depth":0,"parameterNumber":3,"parameterNumberName":"V-component_of_WINDS"},"data":[0,0,0,0,0,0,0,0,0,0,0,0,0,0,0,0,0,0,0,0,0,0,0,0,0,0,0,0,0,0,0,0,0,0,0,0,0,0,0,0,0,0,0,0,0,0,0,0,0,0,0,0,0,0,0,0,0,0,2.7643,2.7642,0,2.7591,2.7591,2.759,2.754,2.754,2.7539,2.7539,2.7482,2.7481,2.748,0,0,0,0,0,0,0,0,0,0,0,0,0,2.7695,2.7695,2.7643,2.7642,2.7642,2.7591,2.7591,2.759,2.7541,2.754,2.7539,2.7538,2.7482,2.7481,2.748,0,0,0,0,0,0,0,0,0,0,0,0,0,2.7661,2.7694,2.7643,2.7611,2.7608,2.7591,2.7591,2.759,2.7541,2.754,2.7539,2.7538,2.7482,2.7481,2.748,2.7489,0,0,2.7475,2.7475,0,0,0,0,0,0,0,0,2.7663,2.7659,2.7616,2.7613,2.7609,2.7571,2.7588,2.7556,2.7541,2.7566,2.7539,2.7537,2.7512,2.7508,2.75,2.7487,2.7484,2.7475,2.7474,2.7474,2.7473,0,0,0,0,0,0,0,2.7665,2.7661,2.7622,2.7616,2.7612,2.7598,2.7592,2.7582,2.7545,2.7564,2.756,2.7555,2.751,2.7502,2.7499,2.7483,2.7475,2.7474,2.7473,2.7472,2.7475,2.7475,0,0,0,0,0,0,2.7673,2.7663,2.7624,2.7621,2.7635,2.7598,2.7591,2.7584,2.7545,2.7538,2.7556,2.7553,2.7505,2.75,2.7496,2.7505,2.7474,2.7472,2.7472,2.7474,2.7475,2.7476,0,0,0,0,0,0,2.7675,2.767,2.7626,2.7641,2.7634,2.7598,2.7591,2.7584,2.7576,2.7539,2.7531,2.7554,2.7504,2.7498,2.7492,2.7502,2.7472,2.747,2.7473,2.7474,2.7475,2.7522,0,0,0,0,0,0,2.7676,2.7671,2.7675,2.7642,2.7634,2.7624,2.7591,2.7584,2.7574,2.757,2.7536,2.7529,2.7503,2.7494,2.749,2.75,2.7469,2.7471,2.7473,2.7475,2.752,2.7525,2.753,0,0,0,0,0,2.7678,2.769,2.7676,2.7671,2.7639,2.7624,2.762,2.759,2.7575,2.7578,2.7555,2.753,2.7502,2.7494,2.7489,2.7498,2.7471,2.7473,2.7475,2.7517,2.7524,2.753,0,0,0,0,0,0,2.7724,2.7685,2.7669,2.767,2.7651,2.7616,2.7619,2.7598,2.7582,2.7579,2.7541,2.7534,2.7531,2.7514,2.7506,2.7505,2.7483,2.7484,2.7517,2.7523,2.7528,2.7531,2.7468,0,0,0,0,0,2.7735,2.7728,2.7693,2.7697,2.7689,2.7656,2.7649,2.7628,2.7606,2.7597,2.7573,2.7552,2.7538,2.7529,2.7515,2.7517,2.7508,2.7521,2.7526,2.753,2.7531,2.753,2.7535,2.7482,2.7482,2.7482,0,0,2.7756,2.7734,2.7731,2.7706,2.7689,2.7681,2.7649,2.7643,2.7636,2.7596,2.7588,2.757,2.7543,2.7541,2.7539,2.7526,2.7544,2.7533,2.7537,2.7535,2.7533,2.7538,2.7543,2.7484,2.7484,2.7483,0,0,2.779,2.7773,2.7775,2.7759,2.7734,2.7712,2.7712,2.768,2.7667,2.7659,2.7628,2.7619,2.7597,2.7579,2.7567,2.7596,2.7572,2.7592,2.7618,2.7617,2.7621,2.7625,2.7634,2.7638,2.7593,2.7593,2.7593,0,2.7819,2.7808,2.7778,2.7773,2.7762,2.7727,2.7728,2.7713,2.7684,2.7677,2.7664,2.7635,2.7614,2.7607,2.7614,2.7606,2.7604,2.7595,2.7624,2.7627,2.7629,2.7638,2.7641,2.7596,2.7595,2.7595,2.7595,0,2.7844,2.7837,2.7841,2.7815,2.7805,2.7803,2.7771,2.7765,2.7745,2.7724,2.7716,2.7691,2.767,2.7667,2.7647,2.7657,2.765,2.7631,2.7607,2.7638,2.7645,2.7648,2.7599,2.7598,2.7598,2.7597,0,0,2.7905,2.7864,2.7866,2.7853,2.7823,2.7816,2.7812,2.7793,2.7788,2.7769,2.7764,2.7746,2.7728,2.7715,2.7692,2.7692,2.7715,2.7673,2.7671,2.7681,2.7723,2.7737,2.7741,2.77,2.77,2.77,2.7725,0,2.7934,2.7926,2.7899,2.7898,2.789,2.7857,2.7853,2.7834,2.7814,2.7803,2.7781,2.7769,2.7747,2.7738,2.7737,2.7713,2.7723,2.771,2.7693,2.7692,2.77,2.7745,2.776,2.7784,2.7728,2.7728,2.7728,0,2.7966,2.7951,2.795,2.792,2.7916,2.7913,2.7894,2.7884,2.7861,2.7847,2.7832,2.7808,2.78,2.7779,2.7767,2.776,2.7751,2.7738,2.7738,2.7734,2.7712,2.7742,2.7791,2.7794,2.7733,2.7732,2.7732,0,2.801,2.7989,2.7985,2.7976,2.7942,2.794,2.7926,2.7902,2.7892,2.7875,2.7868,2.7849,2.7839,2.7824,2.7795,2.7783,2.7786,2.7763,2.7773,2.7773,2.7774,2.7774,2.7822,2.777,2.777,2.777,2.777,0,2.8044,2.8044,2.8005,2.8002,2.8002,2.7971,2.797,2.7952,2.7931,2.7924,2.7894,2.7887,2.7849,2.7838,2.7815,2.7808,2.7804,2.7791,2.7784,2.7793,2.7795,2.7786,2.7783,2.7771,2.7771,2.7771,2.777,0,2.8092,2.8066,2.806,2.8028,2.802,2.8021,2.7993,2.7989,2.7968,2.7959,2.7955,2.7921,2.7907,2.7876,2.7853,2.7837,2.7835,2.7825,2.7844,2.784,2.7851,2.785,2.7894,2.7897,2.7845,2.7845,2.7846,0,2.8115,2.8115,2.8083,2.8077,2.8064,2.8054,2.8045,2.8014,2.8005,2.7978,2.7977,2.7961,2.7945,2.7923,2.7896,2.7877,2.7865,2.7882,2.7862,2.7871,2.7864,2.7864,2.7864,2.7886,2.7887,2.7887,2.7888,0,2.8158,2.8145,2.8134,2.8117,2.8107,2.8092,2.8076,2.8072,2.8037,2.8028,2.8013,2.8002,2.7978,2.7961,2.7939,2.7922,2.7899,2.7895,2.7896,2.7904,2.7914,2.7908,2.7855,2.7893,2.7893,2.7892,2.7892,2.7892,2.8194,2.8192,2.817,2.8157,2.8142,2.8127,2.8122,2.8101,2.8089,2.8068,2.8051,2.8037,2.8013,2.7981,2.7966,2.7954,2.7943,2.7945,2.7945,2.7945,2.7949,2.7918,2.795,2.795,2.795,2.7949,2.7949,0,2.8235,2.8219,2.8208,2.8187,2.8177,2.8158,2.8138,2.8131,2.812,2.8101,2.8087,2.807,2.8053,2.8025,2.8006,2.8002,2.799,2.7998,2.7997,2.7993,2.7961,2.7961,2.8007,2.8007,2.8007,2.8007,2.8007,2.8007,2.8255,2.8251,2.8235,2.8223,2.8207,2.8195,2.8185,2.8171,2.8155,2.8138,2.8125,2.8108,2.8084,2.8063,2.8047,2.8039,2.8032,2.8043,2.8031,2.8001,2.7996,2.799,2.7991,2.8042,2.8042,2.8065,2.8065,2.8065]}]]